Home > Weather > Havana > Past weeks

Flag for Cuba Weather for the Past 2 Weeks in Havana, Cuba

Now
73 °F

Passing clouds.


Feels Like: 74 °F
Forecast: 75 / 88 °F
Wind: 5 mph from East

Location: Aeropuerto Jose Marti - Rancho-Boyeros - Habana

Current Time: Apr 30, 2016 at 1:58:31 AM

Latest Report: Apr 30, 2016 at 12:55 AM


Visibility: 6 mi

Pressure: 29.95 "Hg

Humidity: 78%

Dew Point: 66 °F

Location of HavanaLocation

Historic Weather in Havana — Graph

°F

Havana Temperature Yesterday

Maximum temperature yesterday: 90 °F (at 1:55 PM)
Minimum temperature yesterday: 68 °F (at 6:55 AM)
Average temperature yesterday: 79 °F

High & Low Weather Summary for the Past Weeks

 TemperatureHumidityPressure
High91 °F (Apr 25, 2:55 PM)94% (Apr 23, 1:55 AM)30.12 "Hg (Apr 23, 1:55 AM)
Low59 °F (Apr 19, 5:55 AM)29% (Apr 19, 1:55 PM)29.86 "Hg (Apr 27, 3:55 AM)
Average76 °F66%29.98 "Hg
* Reported Apr 14 11:55 PM — Apr 29 11:55 PM, Havana, Weather by CustomWeather, © 2016

Note: Actual official high and low records may vary slightly from our data, if they occured in-between our weather recording intervals... More about our weather records

Advertising

Havana Weather History for the Previous 24 Hours

Scroll right to see more
 ConditionsComfort  
Time TempWeatherWind HumidityBarometerVisibility
11:55 PM
Fri, Apr 29
73 °FPassing clouds.3 mph74%29.95 "Hg6 mi
10:55 PM73 °FPassing clouds.6 mph74%29.95 "Hg6 mi
9:55 PM77 °FPassing clouds.6 mph61%29.95 "Hg6 mi
8:55 PM79 °FPassing clouds.8 mph58%29.92 "Hg6 mi
7:55 PM81 °FPassing clouds.13 mph54%29.92 "Hg6 mi
6:55 PM84 °FScattered clouds.10 mph51%29.89 "Hg6 mi
5:55 PM86 °FPartly sunny.13 mph49%29.89 "HgN/A
4:55 PM88 °FScattered clouds.16 mph49%29.86 "HgN/A
3:55 PM88 °FScattered clouds.16 mph49%29.89 "HgN/A
2:55 PM88 °FScattered clouds.9 mph49%29.92 "HgN/A
1:55 PM90 °FScattered clouds.5 mph36%29.92 "HgN/A
12:55 PM88 °FScattered clouds.8 mph43%29.95 "HgN/A
11:55 AM84 °FScattered clouds.9 mph48%29.98 "Hg6 mi
10:55 AM84 °FPassing clouds.8 mph51%29.98 "HgN/A
9:55 AM81 °FPassing clouds.13 mph62%30.01 "HgN/A
8:55 AM77 °FSunny.7 mph74%30.01 "Hg6 mi
7:55 AM72 °FPassing clouds.2 mph88%29.98 "Hg6 mi
6:55 AM68 °FClear.5 mph88%29.98 "Hg6 mi
5:55 AM70 °FClear.2 mph88%29.95 "Hg6 mi
4:55 AM70 °FClear.1 mph88%29.95 "Hg6 mi
3:55 AM72 °FClear.2 mph83%29.95 "Hg6 mi
2:55 AM72 °FPassing clouds.2 mph83%29.95 "Hg6 mi
1:55 AM72 °FPassing clouds.6 mph83%29.95 "Hg6 mi
Weather by CustomWeather, © 2016

See weather overviewHow to use our weather pages